Tracking 31032 objects as of 14-Jul-2025
HD Live streaming from Space Station
objects crossing your sky now

JIELONG 3 DEB

Track JIELONG 3 DEB now!
10-day predictions


NORAD ID: 62575
Int'l Code: 2025-007A
Perigee: 643.9 km
Apogee: 659.9 km
Inclination: 55.0 °
Period: 97.6 minutes
Semi major axis: 7022 km
RCS: Unknown
Launch date: January 13, 2025
Source: People's Republic of China (PRC)
Launch site: Yellow Sea Launch Area, China (YSLA)

Note: This is SATELLITE DEBRIS
Your satellite tracking list
Your tracking list is empty




NASA's NSSDC Master Catalog

Two Line Element Set (TLE):
1 62575U 25007A   25195.16793479  .00000958  00000-0  17155-3 0  9991
2 62575  54.9842 105.8867 0011368 332.1580  27.8809 14.75117116 26854
Source of the keplerian elements: AFSPC